ANZ28Y NZAA-NZCH

Flight info

Callsign ANZ28Y
Flight time N/A
Altitude 36000
Route IGBAT H384 NP H252 NS Y288 IPRAK
Aircraft A21N/M-SDE3FGHIRWY/LB1

Departure

Time N/A
Airport Auckland International Airport (NZAA)

Arrival

Time 2026-05-05 20:53
Airport Christchurch International Airport (NZCH)
Time Latitude Longitude Altitude Speed Heading
2026-05-05 20:40 -42.72331 172.66138 12394 ft 364 kts 199°
2026-05-05 20:41 -42.74751 172.65166 11939 ft 361 kts 199°
2026-05-05 20:41 -42.77136 172.64210 11488 ft 359 kts 199°
2026-05-05 20:41 -42.79536 172.63246 11115 ft 353 kts 199°
2026-05-05 20:41 -42.81833 172.62328 11039 ft 338 kts 199°
2026-05-05 20:42 -42.84089 172.61685 11022 ft 325 kts 186°
2026-05-05 20:42 -42.86332 172.61845 10750 ft 322 kts 173°
2026-05-05 20:42 -42.88515 172.62338 10451 ft 318 kts 172°
2026-05-05 20:42 -42.90669 172.62872 10154 ft 314 kts 171°
2026-05-05 20:43 -42.92801 172.63399 9854 ft 309 kts 172°
2026-05-05 20:43 -42.94922 172.63910 9543 ft 305 kts 172°
2026-05-05 20:43 -42.96997 172.64398 9198 ft 303 kts 173°
2026-05-05 20:43 -42.99060 172.64876 8844 ft 301 kts 173°
2026-05-05 20:44 -43.01114 172.65350 8477 ft 300 kts 173°
2026-05-05 20:44 -43.03187 172.65828 8089 ft 299 kts 173°
2026-05-05 20:44 -43.05217 172.66292 7776 ft 296 kts 173°
2026-05-05 20:44 -43.07248 172.66757 7449 ft 294 kts 174°
2026-05-05 20:45 -43.11258 172.67676 6732 ft 292 kts 174°
2026-05-05 20:45 -43.13247 172.68132 6406 ft 289 kts 174°
2026-05-05 20:45 -43.15228 172.68588 6115 ft 284 kts 174°
2026-05-05 20:46 -43.17162 172.69032 5830 ft 280 kts 174°
2026-05-05 20:46 -43.19056 172.69467 5547 ft 276 kts 174°
2026-05-05 20:46 -43.20937 172.69900 5276 ft 272 kts 174°
2026-05-05 20:46 -43.22779 172.70323 5003 ft 268 kts 174°
2026-05-05 20:47 -43.24605 172.70744 4732 ft 264 kts 174°
2026-05-05 20:47 -43.26396 172.71156 4448 ft 261 kts 174°
2026-05-05 20:47 -43.28193 172.71573 4187 ft 257 kts 174°
2026-05-05 20:47 -43.29913 172.71970 3934 ft 253 kts 174°
2026-05-05 20:48 -43.31647 172.72257 3657 ft 245 kts 189°
2026-05-05 20:48 -43.33201 172.71552 3380 ft 229 kts 220°
2026-05-05 20:48 -43.34409 172.70210 3127 ft 221 kts 228°
2026-05-05 20:48 -43.35520 172.68799 2914 ft 215 kts 228°
2026-05-05 20:49 -43.36613 172.67448 2690 ft 207 kts 227°
2026-05-05 20:49 -43.37687 172.66174 2392 ft 200 kts 226°
2026-05-05 20:49 -43.38680 172.65033 2325 ft 171 kts 226°
2026-05-05 20:49 -43.39535 172.64056 2159 ft 150 kts 227°
2026-05-05 20:50 -43.40312 172.63158 1944 ft 144 kts 228°
2026-05-05 20:50 -43.41075 172.62268 1761 ft 144 kts 227°
2026-05-05 20:50 -43.41829 172.61391 1584 ft 143 kts 227°
2026-05-05 20:50 -43.42590 172.60510 1402 ft 142 kts 226°
2026-05-05 20:51 -43.43346 172.59636 1213 ft 142 kts 225°
2026-05-05 20:51 -43.44101 172.58763 1018 ft 141 kts 225°
2026-05-05 20:51 -43.44852 172.57889 821 ft 140 kts 224°
2026-05-05 20:51 -43.45593 172.57019 635 ft 140 kts 221°
2026-05-05 20:52 -43.46355 172.56172 458 ft 140 kts 222°
2026-05-05 20:52 -43.47085 172.55307 270 ft 139 kts 221°
2026-05-05 20:52 -43.47821 172.54457 107 ft 135 kts 220°
2026-05-05 20:52 -43.48434 172.53746 108 ft 90 kts 218°
2026-05-05 20:53 -43.48729 172.53404 114 ft 23 kts 220°
2026-05-05 20:53 -43.48797 172.53360 114 ft 0 kts 179°
2026-05-05 20:53 -43.48806 172.53372 114 ft 5 kts 129°
2026-05-05 20:53 -43.48834 172.53418 113 ft 7 kts 128°
2026-05-05 20:54 -43.48876 172.53493 110 ft 12 kts 127°
2026-05-05 20:54 -43.48868 172.53577 109 ft 10 kts 50°
2026-05-05 20:54 -43.48884 172.53656 108 ft 8 kts 131°
2026-05-05 20:54 -43.48910 172.53697 108 ft 4 kts 129°
2026-05-05 20:55 -43.48919 172.53713 108 ft 0 kts 129°